Regional Weather Roundup
Issued by NWS Portland, ME

Home | Current Version | Previous Version | Text Only | Print | Product List | Glossary On
Versions: 1 2 3 4 5 6 7 8 9 10 11 12 13 14 15 16 17 18 19 20 21 22 23 24 25 26 27 28 29 30 31 32 33 34 35 36 37 38 39 40 41 42 43 44 45 46 47 48 49 50
000
ASUS41 KGYX 041610
RWRGYX
WEATHER ROUNDUP FOR MAINE AND NEW HAMPSHIRE
NATIONAL WEATHER SERVICE GRAY ME
1100 AM EST SUN DEC 04 2016

MEZ002-005-006-010-012-015-018-020-021-024-026-027-029-041700-
MAINE

CITY           SKY/WX    TMP DP  RH WIND       PRES   REMARKS
PORTLAND       MOSUNNY   38  20  48 NW15G23   30.14F
SANFORD        SUNNY     37  19  48 NW7       30.15F
BAR HARBOR     CLOUDY    32  21  64 N10G17    30.09F
WISCASSET      SUNNY     37  20  50 NW8       30.13F
ROCKLAND       PTSUNNY   35  21  56 NW10G16   30.10F
FRYEBURG       SUNNY     37  18  46 VRB5      30.14F
LEWISTONAUBURN SUNNY     35  19  52 NW13G22   30.13F
AUGUSTA        PTSUNNY   35  20  54 W8G16     30.12F
WATERVILLE     PTSUNNY   34  20  56 N12G17    30.09S
BANGOR         PTSUNNY   31  21  66 NW12      30.10F
GREENVILLE       N/A     23  17  78 NW13G23   30.03S WCI  11
MILLINOCKET    CLOUDY    30  19  63 NW6       30.09F
HOULTON        CLOUDY    27  21  78 NW10G20   30.04F WCI  17
PRESQUE ISLE   FLURRIES  26  21  81 NW13      30.08S WCI  15
FRENCHVILLE    CLOUDY    22  16  78 NW18      30.04S WCI   7
CARIBOU        CLOUDY    25  18  74 NW14G20   30.06S WCI  13
$$

NHZ002-005-008-009-011-012-014-041700-
NEW HAMPSHIRE

CITY           SKY/WX    TMP DP  RH WIND       PRES   REMARKS
PORTSMOUTH     MOSUNNY   39  18  43 NW10      30.14F
ROCHESTER      SUNNY     37  18  46 NW13      30.14F
NASHUA         SUNNY     37  20  50 NW12G18   30.18F
MANCHESTER     MOSUNNY   37  16  42 N16G22    30.16F
CONCORD        SUNNY     38  18  44 NW13      30.17F
LACONIA        PTSUNNY   34  18  52 W8G18     30.17F
BERLIN         CLOUDY    30  18  60 VRB7G17   30.14R
WHITEFIELD     CLOUDY    29  18  63 W8        30.17S
JAFFREY        SUNNY     33  18  53 NW12G20   30.15F
KEENE          LGT RAIN  34  20  56 N9        30.20S
LEBANON        CLOUDY    34  21  59 N10       30.20F
MT WASHINGTON  FOG        9   9 100 NW37G43     N/A  VSB 1/8 WCI -16
$$

VTZ005-007-008-041700-
VERMONT

CITY           SKY/WX    TMP DP  RH WIND       PRES   REMARKS
ST JOHNSBURY     N/A     31  20  63 MISG      30.19S
MONTPELIER     CLOUDY    28  21  75 NW10G20   30.22S WCI  19
BURLINGTON     FLURRIES  32  23  69 N8        30.26S
$$

MAZ007-012-024-CTZ003-RIZ002-NYZ038-NYZ072-041700-
SOUTHERN NEW ENGLAND AND NY

CITY           SKY/WX    TMP DP  RH WIND       PRES   REMARKS
BOSTON         MOSUNNY   38  21  50 NW13      30.17F
WORCESTER      MOSUNNY   32  18  56 N13       30.14F
NANTUCKET      SUNNY     41  26  55 NW18      30.14F
PROVIDENCE     PTSUNNY   39  21  48 N13       30.19S
HARTFORD       MOSUNNY   39  19  44 NW12      30.21F
ALBANY         CLOUDY    34  20  56 W7        30.28R
NEW YORK CITY  MOSUNNY   44  23  43 NW14      30.22F
$$

ANZ081-ANZ082-ANZ150-NHZ014-MEZ023>029-041700-
COASTAL MARINE OBSERVATIONS

STATION/POSITION TIME  TEMP    WIND        PRES    WAVE
                       AIR SEA DIR/SP/G            HT/PER
                 (UTC) (F)     (DEG/KT/KT) (MB)    (FT/S)
MOUNT DESERT ROC 1600   33                 1018.3F
MATINICUS ROCK   1500   33     320/ 19/ 24 1019.0R
ISLE OF SHOALS   1500   35     310/ 12/ 15 1021.4R
JEFFREYS LEDGE   1508      51                N/A     4/ 5
CASHES LEDGE BUO 1550   36 50  320/ 16/ 21 1019.4F   4/ 5
GEORGES BANK BUO 1450   44 51              1015.2   10/ 8
$$

.............KEY..............
   WCI - WIND CHILL
   TC  - TEMPERATURE IN CELSIUS
   VSB - VISIBILITY IN MILES
   HX  - HEAT INDEX
   FAIR- INDICATES FEW OR NO CLOUDS BELOW 12,000 FT, WITH NO
         SIGNIFICANT WEATHER AND/OR OBSTRUCTIONS TO VISIBILITY.






USA.gov is the U.S. government's official web portal to all federal, state and local government web resources and services.